sat.trackr.live / text

‹ back to catalog

STARLINK-2666

NORAD 48666 · 2021-044AE

PAYLOAD ACTIVE UNKNOWN

§ Identity

Operator
Country
US
Launch date
2021-05-26
Launch site
AFETR
Launch vehicle
Mass (kg)
RCS (m²)

Purposes: comms

External: N2YO · Heavens-Above · Gunter

§ Orbital elements

Epoch: 2026-05-25T05:00:13.111776Z

Period
94.16 min
Inclination
53.1584°
Eccentricity
0.0001397
Mean motion
15.29361932 rev/d
Perigee alt
476.8 km
Apogee alt
478.7 km
Semi-major
6,855.9 km
B*
7.2945e-6
RAAN
118.5373°
Arg perigee
109.8651°
Mean anomaly
250.2500°
Rev number
27,552

§ Raw data

STARLINK-26661 48666U 21044AE  26145.20848509 -.00000145  00000+0  72945-5 0  99972 48666  53.1584 118.5373 0001397 109.8651 250.2500 15.29361932275522

JSON: /api/v1/satellites/48666 · /tle

For live sub-satellite position, see the globe view (requires WebGL).

§ Visibility from observer

Set your observer location to see the next 7 days of passes ≥ 10°. The values pass through the URL so the page stays shareable.

No JS? Fill the form by hand. The geolocation button needs JavaScript.